Location: Newark
(48.8604°N, 2.3376°E)
Time: 23:46:52
(UTC+00:00)

XW-2C - Pass Details

Date: 10 December 2021
Orbit: 503 x 524 km, 97.5° (Epoch: 19 January)

Event Time Altitude Azimuth Distance (km) Brightness Sun altitude
Rises 05:19:15 0° 21° (NNE) 2,673 ? -20.9°
Reaches altitude 10° 05:21:33 10° 32° (NNE) 1,778 ? -20.6°
Maximum altitude 05:24:59 31° 96° (E) 946 ? -20.0°
Drops below altitude 10° 05:28:23 10° 160° (SSE) 1,760 ? -19.5°
Sets 05:30:39 0° 170° (S) 2,640 ? -19.1°
